Location: Éclaibes
(50.2028°N, 3.9323°E)
Time: 22:37:55
(UTC+00:00)

Daily predictions for brighter satellites

Satellite Brightness Start Highest point End
(mag) Time Altitude Azimuth Time Altitude Azimuth Time Altitude Azimuth
Cosmos 2034 Rocket 4.4 16:43:37 10° NNW 16:49:46 70° W 16:55:53 10° S
Cosmos 2237 Rocket 3.2 16:45:37 10° SSE 16:50:17 27° ESE 16:54:58 10° NE
RESURS DK-1 2.8 16:47:15 10° NNW 16:51:03 38° NE 16:54:49 10° ESE
Cosmos 1515 Rocket 4.3 16:49:38 10° SSW 16:53:52 56° WNW 16:58:10 10° N
Tsikada Rocket 4.0 16:48:27 10° S 16:54:34 76° E 17:00:45 10° NNE
BlueWalker 3 2.1 16:52:26 10° WNW 16:56:01 51° N 16:59:37 10° E
USA 81 4.0 16:51:26 10° S 16:56:41 79° E 17:01:58 10° N
BREEZE-M DEB (TANK) 2.5 16:55:19 10° SW 16:57:24 28° SSE 16:59:51 10° E
Cosmos 1455 1.6 16:54:39 10° N 16:57:53 79° E 17:01:05 10° SSE
Cosmos 2278 Rocket 2.2 16:52:35 10° NNW 16:58:17 71° ENE 17:03:55 10° SE
COSMO-SKYMED 1 3.9 16:57:28 10° NE 17:00:49 21° E 17:04:09 10° SE
Cosmos 2219 Rocket 2.8 16:55:43 10° SW 17:01:13 58° NW 17:06:46 10° NNE
SJ-7 4.3 16:58:17 10° SSE 17:01:58 53° ENE 17:05:43 10° N
ARGOS Delta rocket 3.7 16:57:58 10° SSE 17:02:34 65° ENE 17:06:59 10° N
ISS -2.2 17:00:33 10° SSW 17:03:19 24° SE 17:06:05 10° E
CZ-4C R/B 3.2 17:01:22 10° SSE 17:04:33 20° ESE 17:08:01 11° ENE
CSL-04 DEB 4.2 17:02:36 10° SSE 17:06:27 73° ENE 17:10:14 10° NNW
Meteor 1-21 4.2 17:03:31 10° S 17:09:03 67° E 17:14:41 10° NNE
USA 306 2.5 17:09:18 10° WNW 17:11:12 30° N 17:12:55 15° ENE
SL-14 R/B 4.2 17:07:39 10° SSW 17:11:18 47° WNW 17:14:59 10° N
CORIOLIS 4.4 17:05:56 10° SSE 17:11:22 79° WSW 17:16:50 10° NNW
Cosmos 1763 Rocket 3.5 17:06:59 10° S 17:12:07 65° ESE 17:17:14 10° NNE
Spot 4 Rocket 4.0 17:07:45 10° SSE 17:12:53 87° ENE 17:18:03 10° NNW
YAOGAN 1 3.6 17:10:18 10° ESE 17:13:44 24° ENE 17:17:11 10° N
Cosmos 1733 Rocket 3.1 17:09:42 10° N 17:14:02 54° ENE 17:18:21 10° SSE
Cosmos 540 Rocket 3.6 17:12:50 10° S 17:17:51 58° ESE 17:22:53 10° NNE
Landsat 7 4.1 17:15:21 10° SE 17:19:45 42° ENE 17:24:12 10° N
Cosmos 2322 3.9 17:14:50 10° SW 17:20:34 76° WNW 17:26:20 10° NNE
Cosmos 468 Rocket 4.2 17:16:48 10° S 17:21:47 49° ESE 17:26:45 10° NNE
USA 215 3.5 17:16:12 11° ENE 17:22:23 64° NNW 17:28:50 10° W
Cosmos 2228 Rocket 3.3 17:21:15 10° S 17:25:38 52° E 17:30:05 10° NNE
Cosmos 2279 Rocket 4.0 17:19:54 10° N 17:26:09 85° E 17:32:21 10° S
NOSS 8 (A) 4.3 17:25:24 10° NW 17:28:18 75° SW 17:31:42 10° SE
Cosmos 1656 Rocket 4.4 17:23:42 10° NNW 17:28:34 31° NE 17:33:23 10° ESE
Cosmos 1898 Rocket 3.5 17:23:40 10° NNW 17:28:56 62° ENE 17:34:11 10° SE
Cosmos 841 Rocket 4.3 17:26:48 10° SSE 17:31:22 31° E 17:35:00 15° NE
Aureole 1 Rocket 4.3 17:25:12 10° NNW 17:32:59 78° ENE 17:39:58 10° SSE
PSLV R/B 3.9 17:29:40 10° S 17:33:41 63° WSW 17:37:46 10° NNW
Cosmos 1703 4.4 17:34:17 10° SE 17:36:27 19° E 17:36:27 19° E
Okean 1-7 3.4 17:35:23 10° SSE 17:39:21 38° E 17:43:20 10° NNE
SL-16 R/B 3.4 17:35:38 10° SE 17:39:39 20° E 17:40:54 19° E
Cosmos 1980 3.7 17:34:11 10° SSW 17:39:45 64° ESE 17:44:57 12° NE
NOSS 8 (E) 4.4 17:38:47 10° SW 17:42:49 89° SE 17:44:41 24° NE
Cosmos 1953 2.3 17:39:09 10° NNW 17:42:52 75° W 17:46:35 10° S
SKYMED 2 3.6 17:44:50 10° NNE 17:49:10 60° ESE 17:53:26 10° S
NOSS 0 Rocket 3.9 17:43:31 10° SSW 17:49:40 88° WNW 17:55:40 11° NNE
Cosmos 1818 3.6 17:46:16 10° NW 17:51:42 58° NE 17:56:19 14° ESE
ATLAS 2AS CENTAUR R/B 2.7 17:46:29 10° NW 17:53:16 60° NE 17:59:05 14° ESE
NOSS 8 (H) 4.4 17:50:41 10° SW 17:54:33 82° NW 17:55:54 32° NE
Cosmos 2369 Rocket 2.8 17:49:38 10° NNW 17:54:41 33° NE 17:56:55 25° E
Resurs 01 Rocket 3.7 17:57:26 12° NNE 17:57:26 12° NNE 17:58:02 10° NNE
ACS3 Solar Sail 1.8 17:50:15 10° SSE 17:56:36 71° ENE 18:02:59 10° N
COSMOS 2428 3.4 17:51:31 10° SW 17:57:03 52° NW 18:02:38 10° NNE
Cosmos 372 Rocket 4.0 17:53:52 10° NNW 17:58:59 82° WSW 18:04:04 10° SSE
Cosmos 2333 Rocket 4.3 17:55:10 10° W 17:59:09 19° NW 18:03:10 10° N
BREEZE-M DEB (TANK) 3.3 17:57:20 10° W 18:05:58 82° S 18:07:22 37° E
Cosmos 1908 Rocket 3.4 18:02:48 10° N 18:07:08 62° ENE 18:11:23 10° SSE
Cosmos 2322 Rocket 4.5 18:05:11 10° WNW 18:08:32 16° NNW 18:11:55 10° N
Cosmos 2360 Rocket 4.4 18:07:42 10° WNW 18:11:23 17° NNW 18:15:04 10° N
Meteor 1-31 Rocket 2.6 18:09:20 10° S 18:12:53 79° WSW 18:16:29 10° NNW
EO 1 Delta rocket 3.7 18:08:18 10° N 18:13:06 84° E 18:17:44 10° S
Okean 3 4.4 18:09:40 10° SSW 18:13:38 46° WNW 18:17:38 10° N
Cosmos 1707 Rocket 4.3 18:10:05 10° SSW 18:14:25 53° WNW 18:18:48 10° N
Okean 2 4.1 18:13:33 10° SSW 18:17:25 51° WNW 18:21:18 10° N
Cosmos 2297 3.9 18:12:20 10° NNW 18:17:57 50° NE 18:20:17 32° ESE
Cosmos 1937 Rocket 3.6 18:13:50 10° NNW 18:18:59 75° WSW 18:24:08 10° SSE
CZ-2C R/B 2.5 18:22:18 58° N 18:22:18 58° N 18:25:07 10° N
Cosmos 2026 Rocket 4.1 18:16:56 10° SSE 18:23:05 54° E 18:29:16 10° NNE
Cosmos 858 Rocket 4.4 18:18:20 10° NNW 18:23:35 87° WSW 18:28:48 10° SSE
BREEZE-M DEB (TANK) 3.5 18:13:36 10° WSW 18:27:19 67° SSE 18:28:56 42° E
Cosmos 1943 Rocket 3.8 18:22:34 10° NW 18:27:41 36° WSW 18:32:43 10° S
Cosmos 1428 Rocket 4.3 18:23:43 10° S 18:29:54 79° E 18:36:05 10° NNE
Cosmos 2237 Rocket 2.6 18:28:18 10° SW 18:33:56 61° WNW 18:37:58 20° NNE
BlueWalker 3 1.8 18:30:20 10° WNW 18:33:53 80° WSW 18:33:53 80° WSW
COSMO-SKYMED 1 3.5 18:33:02 10° N 18:37:14 48° WNW 18:41:24 10° SW
ISS -3.0 18:36:25 10° WSW 18:39:01 51° WSW 18:39:01 51° WSW
USA 306 4.4 18:40:05 10° WNW 18:40:49 18° WNW 18:40:49 18° WNW
Cosmos 1782 Rocket 4.0 18:38:35 10° N 18:41:42 45° N 18:41:42 45° N
Cosmos 2344 3.9 18:37:08 10° WSW 18:44:21 55° NW 18:48:48 25° NNE
Cosmos 2219 Rocket 4.5 18:42:53 10° WNW 18:46:25 17° NNW 18:49:58 10° N
YAOGAN 1 3.7 18:45:22 10° S 18:49:26 43° W 18:53:32 10° NNW
YAOGAN 11 4.0 18:51:31 81° SW 18:51:31 81° SW 18:55:36 10° SSW
CZ-4C R/B 2.0 18:47:25 10° SW 18:51:57 73° NW 18:53:04 54° NNE
ATLAS 5 CENTAUR R/B 2.9 18:53:24 10° SW 18:54:39 22° SW 18:54:39 22° SW
Meteor 1-24 Rocket 3.7 18:52:13 10° S 18:58:04 66° E 18:58:08 66° E
CZ-4B R/B 4.5 19:00:45 26° N 19:00:45 26° N 19:03:13 10° N
SPOT 1/Viking Rocket 4.0 18:55:36 10° S 19:00:41 59° W 19:05:47 10° NNW
Cosmos 1703 Rocket 4.1 18:56:43 10° SSW 19:01:06 59° WNW 19:02:12 44° NNW
USA 215 3.7 19:03:32 43° NE 19:04:56 49° N 19:11:11 10° WNW
Resurs 1-3 4.4 19:01:01 10° S 19:05:12 48° W 19:09:24 10° NNW
Meteor 2-5 Rocket 3.9 19:02:55 10° S 19:07:38 60° SSE 19:07:38 60° SSE
Cosmos 1656 Rocket 4.1 19:07:03 10° NW 19:12:24 57° WSW 19:14:50 32° S
Cosmos 841 Rocket 4.4 19:07:57 10° SW 19:13:00 46° WNW 19:15:03 31° N
SL-16 R/B 2.2 19:17:26 10° SSW 19:22:50 75° W 19:22:50 75° W
Cosmos 1553 Rocket 3.8 19:17:44 10° N 19:23:51 86° WNW 19:23:51 86° WNW
ADEOS 4.0 19:29:31 59° WNW 19:29:31 59° WNW 19:34:13 10° NNW
Resurs 01 Rocket 4.2 19:34:52 13° NNW 19:34:52 13° NNW 19:35:21 10° NNW
Cosmos 2369 Rocket 2.8 19:33:31 10° NW 19:38:45 54° WSW 19:38:45 54° WSW
ACS3 Solar Sail 3.9 19:35:36 10° SW 19:40:43 25° W 19:45:52 10° NW
ATLAS 2AS CENTAUR R/B 3.7 19:37:44 10° NW 19:43:57 40° WSW 19:46:35 28° SSW
Cosmos 2237 Rocket 4.5 20:15:27 10° WNW 20:19:13 18° NNW 20:19:48 17° NNW
